STARLINK-3694, 51957

Orbit data source: Space-Track

STARLINK-3694, 51957 is a payload satellite owned by SpaceX/Seattle (US) in LEO that was launched on Wed, 09 Mar 2022 UTC via an FALCON 9 launch vehicle from the Air Force Eastern Test Range (AFETR). Payload-class satellites include a variety of spacecraft equipped with specific instruments for various scientific and technological missions. These include communications satellites like Starlink; space stations such as the ISS; scientific satellites like the Hubble; Earth observation satellites from companies like Planet Labs, Umbra, and HawkEye 360; GPS; miniature CubeSats for education and research; and military/defense satellites.

Loading next visibility...
Identifier
51957, 2022-025B
Orbit
LEO
Country
Flag of USUS
Related business
Manufacturer
SpaceX/Seattle
Mission
Operational Commercial Communications
Bus & Motor
STARLINK, Unknown motor
Mass
297 kg wet, ~275 kg dry
Launch date (UTC)
2022-03-09 (4 years ago)
Launch vehicle
FALCON 9
Launch site
Air Force Eastern Test Range (AFETR)
Object type
Payload
Rocket body
Debris
Shape & HBR
Box + 1 Pan, 10.1 m
Radar Cross Section
13.562 m², Large (>1 m²)

Expand to show TLE details & history
Last TLE update: 2 days ago

TLE from 2 days ago
0 STARLINK-3694
1 51957U 22025B   26171.43906679  .00000718  00000-0  34901-4 0  9996
2 51957  53.1604 278.8584 0001376  96.6044 263.5114 15.31705666236571
Epoch: 2026-06-20T10:32Z
TLE epoch observation values (Epoch: 2026-06-20T10:32:15.370Z)
Latitude
-0.00004°
Longitude
-147.85935°
Altitude
471.73 km
Speed
7.631 km/s
True Right ascension
18h 35m 26s
True Declination
0° 00' 00"
Sunlit
Object was in full shadow at epoch
Visualization orbit readout
Latitude
Unknown
Longitude
Unknown
Altitude
Unknown
Speed
Unknown
Apparent Right ascension
Unknown
Apparent Declination
Unknown
Sunlit
N/A
Visualization observer readout
Local Sidereal Time
21:48:29
Azimuth
Unknown
Elevation
Unknown
Doppler factor
Unknown
Orbital elements
Apogee altitude
471.922 km
Perigee altitude
470.037 km
Semi-major axis
6,849.117 km
Eccentricity
0.00014
Inclination
53.1604°
RAAN
278.8584°
Arg. of periapsis
96.6044°
True anomaly
263.49573°
Mean anomaly
263.5114°
Eccentric anomaly
263.50357°
Mean motion
3.82905 °/min
Orbital period
94.02 mins
BSTAR
0.000034901
Loading maneuver chart data...
Computing Atmospheric mass density...

Documentation

Showing up to 5 results
|